Stations météo

réclame
Mon MeteoGroup
St-Hubert, Belgique (6476): Température de l'air & dewpoint: 20.05.2018 23:00:00 - 26.05.2018 23:00:00 (CEST)St-Hubert, Belgique (6476): Vitesse du vent & gusts: 20.05.2018 23:00:00 - 26.05.2018 23:00:00 (CEST)St-Hubert, Belgique (6476): Direction du vent: 20.05.2018 23:00:00 - 26.05.2018 23:00:00 (CEST)St-Hubert, Belgique (6476): reduced air pressure: 20.05.2018 23:00:00 - 26.05.2018 23:00:00 (CEST)St-Hubert, Belgique (6476): visibility: 20.05.2018 23:00:00 - 26.05.2018 23:00:00 (CEST)
Date & Time tt [°C] td [°C] ff [km/h] ff [knt] fx [km/h] fx [knt] dd ppp [hPa] vv [km]
26.05.2018 23:00:00 19,8 13,5 18 10 - - E 1018,4 45
26.05.2018 22:00:00 20,1 13,9 14 8 22 12 E 1017,9 45
26.05.2018 21:00:00 21,6 13,9 14 8 22 12 ENE 1017,1 45
26.05.2018 20:00:00 23,2 13,7 7 4 - - SSE 1017,4 40
26.05.2018 19:00:00 24,4 14,0 11 6 22 12 SSE 1017,0 30
26.05.2018 18:00:00 24,7 13,3 7 4 22 12 S 1017,3 29
26.05.2018 17:00:00 24,7 13,7 11 6 - - SSW 1017,4 35
26.05.2018 16:00:00 24,0 12,4 11 6 25 14 SSE 1017,8 35
26.05.2018 15:00:00 24,1 13,9 11 6 29 16 S 1017,9 30
26.05.2018 14:00:00 23,4 13,2 11 6 - - SSE 1018,5 30
26.05.2018 13:00:00 22,7 12,9 14 8 29 16 ESE 1018,1 29
26.05.2018 12:00:00 22,1 13,3 14 8 29 16 ESE 1018,0 40
26.05.2018 11:00:00 21,5 13,7 18 10 - - ESE 1018,1 30
26.05.2018 10:00:00 19,8 14,0 14 8 25 14 ESE 1018,2 35
26.05.2018 09:00:00 18,1 13,5 14 8 22 12 E 1018,4 29
26.05.2018 08:00:00 15,7 12,8 14 8 - - E 1018,7 23
26.05.2018 07:00:00 14,4 11,9 18 10 22 12 E 1018,8 25
26.05.2018 06:00:00 13,9 11,6 14 8 22 12 E 1018,7 23
26.05.2018 05:00:00 14,6 11,5 14 8 - - E 1018,5 35
26.05.2018 04:00:00 14,5 11,3 14 8 22 12 E 1018,6 45
26.05.2018 03:00:00 15,2 10,8 11 6 22 12 E 1018,5 45
26.05.2018 02:00:00 15,6 10,7 14 8 - - E 1018,7 45
26.05.2018 01:00:00 14,9 12,4 11 6 14 8 E 1018,8 45
26.05.2018 00:00:00 15,6 13,0 11 6 14 8 E 1018,5 45
25.05.2018 23:00:00 15,3 13,0 11 6 - - ENE 1018,6 35
25.05.2018 22:00:00 16,4 13,1 11 6 11 6 ENE 1018,1 45
25.05.2018 21:00:00 19,1 12,8 7 4 14 8 ENE 1017,1 45
25.05.2018 20:00:00 20,5 11,7 11 6 - - ENE 1016,7 35
25.05.2018 19:00:00 20,6 11,9 7 4 11 6 ENE 1016,6 40
25.05.2018 18:00:00 20,9 11,1 4 2 11 6 - 1016,9 35
25.05.2018 17:00:00 20,6 11,3 4 2 - - SSW 1017,2 35
25.05.2018 16:00:00 21,7 12,0 7 4 18 10 S 1017,0 35
25.05.2018 15:00:00 20,8 11,9 4 2 14 8 - 1017,0 30
25.05.2018 14:00:00 20,8 10,7 4 2 - - - 1017,1 30
25.05.2018 13:00:00 19,7 11,2 7 4 14 8 WSW 1017,5 35
25.05.2018 12:00:00 19,3 10,3 0 0 11 6 N 1017,6 35
25.05.2018 11:00:00 18,8 12,4 0 0 - - N 1017,6 35
25.05.2018 10:00:00 18,2 13,8 4 2 11 6 - 1017,7 30
25.05.2018 09:00:00 16,8 12,8 7 4 11 6 SW 1017,9 28
25.05.2018 08:00:00 15,5 12,5 4 2 - - SSE 1017,7 40
25.05.2018 07:00:00 13,2 11,5 7 4 11 6 SSE 1018,0 13
25.05.2018 06:00:00 12,0 10,9 11 6 14 8 SE 1018,0 5
25.05.2018 05:00:00 11,3 10,3 7 4 - - ESE 1018,0 4,5
25.05.2018 04:00:00 12,1 10,9 7 4 11 6 SE 1017,8 5
25.05.2018 03:00:00 11,9 11,0 7 4 11 6 SE 1017,9 2,7
25.05.2018 02:00:00 12,9 11,9 7 4 - - SSE 1017,7 4,0
25.05.2018 01:00:00 13,1 11,8 11 6 18 10 SE 1017,9 9
25.05.2018 00:00:00 14,0 12,4 11 6 18 10 SE 1017,5 15
24.05.2018 23:00:00 14,2 12,4 11 6 - - ESE 1017,6 20
24.05.2018 22:00:00 14,5 12,6 14 8 22 12 ESE 1017,3 27
24.05.2018 21:00:00 14,9 12,1 11 6 22 12 E 1016,8 45
24.05.2018 20:00:00 16,5 12,4 18 10 - - NNE 1016,3 35
24.05.2018 19:00:00 17,7 13,4 11 6 22 12 WSW 1015,8 30
24.05.2018 18:00:00 18,1 13,4 11 6 25 14 SW 1015,8 30
24.05.2018 17:00:00 18,5 13,3 11 6 - - SSW 1015,5 30
24.05.2018 16:00:00 18,0 12,8 11 6 22 12 S 1016,1 24
24.05.2018 15:00:00 18,4 13,4 7 4 22 12 SSE 1016,2 23
24.05.2018 14:00:00 18,5 13,5 11 6 - - S 1016,7 27
24.05.2018 13:00:00 17,8 13,5 7 4 18 10 SE 1017,2 26
24.05.2018 12:00:00 17,3 13,1 11 6 22 12 SSE 1017,5 29
24.05.2018 11:00:00 15,7 13,0 - - - - - 1017,8 15
24.05.2018 10:00:00 - - - - - - - - -
24.05.2018 09:00:00 - - - - - - - - -
24.05.2018 08:00:00 - - - - - - - - -
24.05.2018 07:00:00 - - - - - - - - -
24.05.2018 06:00:00 - - - - - - - - -
24.05.2018 05:00:00 - - - - - - - - -
24.05.2018 04:00:00 - - - - - - - - -
24.05.2018 03:00:00 - - - - - - - - -
24.05.2018 02:00:00 - - - - - - - - -
24.05.2018 01:00:00 - - - - - - - - -
24.05.2018 00:00:00 - - - - - - - - -
23.05.2018 23:00:00 - - - - - - - - -
23.05.2018 22:00:00 - - - - 32 18 - - -
23.05.2018 21:00:00 - - - - - - - - -
23.05.2018 20:00:00 14,9 13,5 11 6 - - NE 1018,4 4,5
23.05.2018 19:00:00 15,1 13,3 11 6 18 10 NE 1018,2 5
23.05.2018 18:00:00 14,7 13,3 11 6 18 10 NE 1018,4 9
23.05.2018 17:00:00 13,9 11,7 11 6 - - N 1018,5 21
23.05.2018 16:00:00 18,8 12,4 11 6 22 12 NE 1017,2 35
23.05.2018 15:00:00 17,3 13,6 14 8 22 12 NE 1017,8 13
23.05.2018 14:00:00 15,2 12,4 11 6 - - NNE 1018,8 9
23.05.2018 13:00:00 15,2 13,4 11 6 18 10 NNW 1018,6 4,1
23.05.2018 12:00:00 17,6 12,4 7 4 14 8 ENE 1017,7 30
23.05.2018 11:00:00 15,4 12,8 7 4 - - NE 1018,1 -
23.05.2018 10:00:00 13,4 12,2 11 6 14 8 NNE 1018,3 2,4
23.05.2018 09:00:00 12,7 11,7 7 4 14 8 ENE 1017,9 2,2
23.05.2018 08:00:00 11,9 11,2 7 4 - - ENE 1017,7 0,3
23.05.2018 07:00:00 11,7 11,0 11 6 14 8 ENE 1017,2 0,2
23.05.2018 06:00:00 11,5 11,0 11 6 14 8 ENE 1016,8 -
23.05.2018 05:00:00 11,2 10,6 11 6 - - ENE 1016,6 0,2
23.05.2018 04:00:00 12,0 11,1 7 4 11 6 NE 1016,2 1,5
23.05.2018 03:00:00 12,2 11,8 7 4 14 8 NE 1015,9 0,1
23.05.2018 02:00:00 12,0 11,5 11 6 - - NE 1015,7 0,2
23.05.2018 01:00:00 11,9 11,0 11 6 14 8 NE 1016,1 4,1
23.05.2018 00:00:00 11,7 10,4 11 6 14 8 NE 1016,1 10
22.05.2018 23:00:00 11,8 10,5 4 2 - - NE 1015,6 13
22.05.2018 22:00:00 12,0 10,4 7 4 22 12 WSW 1015,3 19
22.05.2018 21:00:00 13,5 10,0 14 8 22 12 WNW 1014,8 45
22.05.2018 20:00:00 15,3 11,0 11 6 - - ENE 1013,4 45
22.05.2018 19:00:00 15,8 10,9 14 8 25 14 NE 1013,0 35
22.05.2018 18:00:00 16,3 11,9 18 10 29 16 NE 1012,9 35
22.05.2018 17:00:00 18,4 11,6 7 4 - - WNW 1012,0 35
22.05.2018 16:00:00 18,2 11,9 7 4 14 8 WNW 1012,2 29
22.05.2018 15:00:00 16,0 12,4 11 6 22 12 NW 1012,8 40
22.05.2018 14:00:00 18,1 11,9 14 8 - - W 1012,0 35
22.05.2018 13:00:00 18,5 11,1 7 4 22 12 - 1012,0 30
22.05.2018 12:00:00 18,9 8,9 7 4 18 10 - 1012,0 30
22.05.2018 11:00:00 17,4 11,4 7 4 - - WSW 1012,4 27
22.05.2018 10:00:00 16,9 11,4 4 2 11 6 W 1012,5 35
22.05.2018 09:00:00 15,5 11,0 4 2 7 4 WSW 1012,4 35
22.05.2018 08:00:00 15,5 10,4 4 2 - - W 1012,0 35
22.05.2018 07:00:00 13,0 9,5 0 0 4 2 N 1012,2 45
22.05.2018 06:00:00 13,0 9,1 0 0 4 2 N 1012,1 40
22.05.2018 05:00:00 12,4 9,3 0 0 - - N 1012,3 45
22.05.2018 04:00:00 12,7 9,0 0 0 4 2 N 1012,4 45
22.05.2018 03:00:00 12,4 8,7 4 2 4 2 S 1012,4 40
22.05.2018 02:00:00 13,0 8,6 4 2 - - SSW 1012,3 45
22.05.2018 01:00:00 12,6 9,2 4 2 7 4 SSE 1012,7 45
22.05.2018 00:00:00 12,5 9,0 4 2 7 4 S 1013,0 45
21.05.2018 23:00:00 14,4 8,9 4 2 - - S 1012,6 45
21.05.2018 22:00:00 15,3 9,2 4 2 7 4 S 1012,2 45
21.05.2018 21:00:00 16,7 10,3 4 2 14 8 SSE 1011,8 45
21.05.2018 20:00:00 18,4 10,0 7 4 - - S 1011,2 40
21.05.2018 19:00:00 19,1 10,2 11 6 25 14 SSE 1011,1 40
21.05.2018 18:00:00 19,5 10,0 11 6 22 12 SSE 1011,3 30
21.05.2018 17:00:00 19,2 10,1 11 6 - - SSE 1011,7 40
21.05.2018 16:00:00 18,4 10,5 11 6 32 18 SE 1012,4 40
21.05.2018 15:00:00 18,1 10,0 7 4 29 16 SE 1012,7 30
21.05.2018 14:00:00 18,2 11,3 14 8 - - SE 1012,7 30
21.05.2018 13:00:00 17,3 9,7 11 6 29 16 SE 1013,4 30
21.05.2018 12:00:00 16,4 9,0 14 8 29 16 ESE 1013,6 35
21.05.2018 11:00:00 15,5 8,6 18 10 - - ESE 1013,9 26
21.05.2018 10:00:00 13,9 7,9 18 10 36 19 E 1014,6 35
21.05.2018 09:00:00 12,5 8,6 22 12 32 18 E 1015,0 30
21.05.2018 08:00:00 10,7 8,6 18 10 - - ENE 1015,8 30
21.05.2018 07:00:00 9,4 7,8 22 12 29 16 ENE 1016,2 35
21.05.2018 06:00:00 9,1 8,0 18 10 25 14 ENE 1016,6 15
21.05.2018 05:00:00 9,4 8,6 14 8 - - ENE 1016,9 -
21.05.2018 04:00:00 10,1 8,8 14 8 22 12 ENE 1017,6 15
21.05.2018 03:00:00 10,6 9,0 11 6 18 10 E 1018,0 24
21.05.2018 02:00:00 10,4 9,2 11 6 - - E 1018,7 10
21.05.2018 01:00:00 10,3 9,0 18 10 36 19 E 1019,5 13
21.05.2018 00:00:00 10,9 8,7 25 14 47 25 E 1019,2 22
20.05.2018 23:00:00 11,4 8,6 22 12 - - ENE 1019,2 30

tt = Température de l'air
td = dewpoint
ff = Vitesse du vent
fx = gusts
dd = Direction du vent
ppp = reduced air pressure
vv = visibility

stations d'obs. à proximité